Date String (YYYY-MM-DD hh:mm:ss) UTC,Instrument flags,Ambient pressure (hPa),Sample flow (lpm),Bypass flow (lpm),Sample temperature (°C),Ambient temperature (°C),ASC tube jacket temperature (°C),LED temperature (°C),Box temperature (°C),Sample RH (%),Span deviation,Mass concentration (μg/m³),Mass concentration (μg/m³),Mass concentration (μg/m³)
DateTimeUTC,F1_M11,P_M11,Q1_M11,Q2_M11,T1_M11,T2_M11,T3_M11,T4_M11,T5_M11,U1_M11,ZSPAN_M11,X0_M11,X2_M11,X1_M11
2022-02-12 05:00:00,,0835.2,4.99,0.00,22.4,21.9,00.0,31.3,24.1,12.8,0000.0,0006.01,0001.49,0000.91
2022-02-12 05:01:00,,0835.2,5.02,0.00,22.4,21.8,00.0,31.3,24.1,12.8,0000.0,0005.76,0001.45,0000.90
2022-02-12 05:02:00,,0835.2,4.99,0.00,22.3,21.7,00.0,31.3,24.1,12.8,0000.0,0005.47,0001.38,0000.88
2022-02-12 05:03:00,,0835.3,5.00,0.00,22.3,21.7,00.0,31.3,24.1,12.8,0000.0,0005.25,0001.34,0000.86
2022-02-12 05:04:00,,0835.3,5.00,0.00,22.3,21.6,00.0,31.3,24.0,12.9,0000.0,0004.81,0001.32,0000.85
2022-02-12 05:05:00,,0835.3,4.99,0.00,22.3,21.6,00.0,31.3,24.0,12.9,0000.0,0004.45,0001.27,0000.84
2022-02-12 05:06:00,,0835.3,5.00,0.00,22.3,21.5,00.0,31.3,24.0,12.9,0000.0,0004.43,0001.24,0000.83
2022-02-12 05:07:00,,0835.3,5.01,0.00,22.2,21.5,00.0,31.3,23.9,12.9,0000.0,0004.33,0001.20,0000.82
2022-02-12 05:08:00,,0835.3,4.99,0.00,22.2,21.5,00.0,31.3,23.9,12.9,0000.0,0004.34,0001.22,0000.82
2022-02-12 05:09:00,,0835.3,4.99,0.00,22.2,21.4,00.0,31.3,23.9,12.9,0000.0,0004.48,0001.26,0000.84
2022-02-12 05:10:00,,0835.3,5.02,0.00,22.2,21.4,00.0,31.2,23.9,13.0,0000.0,0004.36,0001.29,0000.87
2022-02-12 05:11:00,,0835.3,5.01,0.00,22.1,21.4,00.0,31.2,23.8,13.0,0000.0,0002.89,0001.34,0000.91
2022-02-12 05:12:00,,0835.3,4.99,0.00,22.1,21.4,00.0,31.2,23.8,13.0,0000.0,0003.00,0001.38,0000.94
2022-02-12 05:13:00,,0835.3,5.00,0.00,22.1,21.3,00.0,31.2,23.8,13.0,0000.0,0003.04,0001.45,0001.01
2022-02-12 05:14:00,,0835.2,5.00,0.00,22.1,21.3,00.0,31.2,23.8,13.0,0000.0,0003.19,0001.55,0001.08
2022-02-12 05:15:00,,0835.2,5.01,0.00,22.1,21.5,00.0,31.2,23.8,13.0,0000.0,0003.37,0001.62,0001.15
2022-02-12 05:16:00,,0835.2,5.00,0.00,22.2,22.2,00.0,31.2,24.0,13.0,0000.0,0003.30,0001.68,0001.22
2022-02-12 05:17:00,,0835.2,5.01,0.00,22.3,22.9,00.0,31.2,24.3,12.9,0000.0,0003.44,0001.74,0001.27
2022-02-12 05:18:00,,0835.3,4.99,0.00,22.4,22.9,00.0,31.3,24.3,12.8,0000.0,0004.91,0001.80,0001.34
2022-02-12 05:19:00,,0835.3,5.00,0.00,22.4,22.6,00.0,31.3,24.3,12.8,0000.0,0005.06,0001.81,0001.40
2022-02-12 05:20:00,,0835.3,5.02,0.00,22.4,22.4,00.0,31.3,24.2,12.8,0000.0,0004.87,0001.80,0001.43
2022-02-12 05:21:00,,0835.4,5.00,0.00,22.4,22.2,00.0,31.3,24.1,12.8,0000.0,0004.80,0001.78,0001.43
2022-02-12 05:22:00,,0835.3,5.00,0.00,22.3,22.1,00.0,31.3,24.1,12.8,0000.0,0004.75,0001.77,0001.41
2022-02-12 05:23:00,,0835.3,5.00,0.00,22.3,22.0,00.0,31.3,24.0,12.8,0000.0,0004.55,0001.72,0001.39
2022-02-12 05:24:00,,0835.3,5.00,0.00,22.3,21.8,00.0,31.3,24.0,12.8,0000.0,0004.43,0001.66,0001.35
2022-02-12 05:25:00,,0835.4,5.00,0.00,22.3,21.8,00.0,31.3,24.0,12.8,0000.0,0004.33,0001.61,0001.29
2022-02-12 05:26:00,,0835.4,5.00,0.00,22.2,21.7,00.0,31.3,23.9,12.8,0000.0,0004.17,0001.56,0001.26
2022-02-12 05:27:00,,0835.5,4.99,0.00,22.2,21.6,00.0,31.2,23.9,12.8,0000.0,0004.03,0001.49,0001.25
2022-02-12 05:28:00,,0835.5,5.01,0.00,22.2,21.5,00.0,31.2,23.9,12.9,0000.0,0003.64,0001.46,0001.25
2022-02-12 05:29:00,,0835.5,4.99,0.00,22.2,21.5,00.0,31.2,23.9,12.9,0000.0,0002.58,0001.45,0001.25
2022-02-12 05:30:00,,0835.5,5.00,0.00,22.1,21.5,00.0,31.2,23.8,12.9,0000.0,0002.28,0001.48,0001.25
2022-02-12 05:31:00,,0835.5,4.99,0.00,22.1,21.4,00.0,31.2,23.8,12.9,0000.0,0002.57,0001.54,0001.27
2022-02-12 05:32:00,,0835.5,5.02,0.00,22.1,21.4,00.0,31.2,23.8,12.9,0000.0,0002.70,0001.62,0001.31
2022-02-12 05:33:00,,0835.5,4.98,0.00,22.1,21.4,00.0,31.2,23.8,13.0,0000.0,0002.75,0001.66,0001.34
2022-02-12 05:34:00,,0835.5,5.00,0.00,22.1,21.3,00.0,31.2,23.8,13.0,0000.0,0002.85,0001.72,0001.39
2022-02-12 05:35:00,,0835.5,5.01,0.00,22.0,21.3,00.0,31.1,23.7,13.0,0000.0,0002.94,0001.78,0001.44
2022-02-12 05:36:00,,0835.5,4.99,0.00,22.0,21.3,00.0,31.1,23.7,13.0,0000.0,0002.99,0001.79,0001.48
2022-02-12 05:37:00,,0835.5,5.02,0.00,22.0,21.4,00.0,31.1,23.8,13.0,0000.0,0003.00,0001.82,0001.52
2022-02-12 05:38:00,,0835.5,5.00,0.00,22.1,22.0,00.0,31.1,23.9,13.0,0000.0,0003.15,0001.90,0001.54
2022-02-12 05:39:00,,0835.5,4.99,0.00,22.2,22.8,00.0,31.2,24.1,12.9,0000.0,0003.27,0001.94,0001.55
2022-02-12 05:40:00,,0835.5,4.99,0.00,22.3,23.1,00.0,31.2,24.3,12.8,0000.0,0003.65,0001.98,0001.56
2022-02-12 05:41:00,,0835.5,5.01,0.00,22.4,22.8,00.0,31.2,24.3,12.8,0000.0,0003.72,0002.00,0001.56
2022-02-12 05:42:00,,0835.5,5.01,0.00,22.4,22.6,00.0,31.2,24.2,12.8,0000.0,0003.57,0002.02,0001.56
2022-02-12 05:43:00,,0835.5,4.99,0.00,22.3,22.3,00.0,31.2,24.1,12.8,0000.0,0003.70,0002.03,0001.55
2022-02-12 05:44:00,,0835.5,5.01,0.00,22.3,22.1,00.0,31.2,24.1,12.8,0000.0,0004.27,0002.12,0001.55
2022-02-12 05:45:00,,0835.5,5.00,0.00,22.3,21.9,00.0,31.2,24.0,12.8,0000.0,0004.61,0002.20,0001.57
2022-02-12 05:46:00,,0835.5,4.99,0.00,22.2,21.8,00.0,31.2,23.9,12.8,0000.0,0004.76,0002.24,0001.58
2022-02-12 05:47:00,,0835.5,5.00,0.00,22.2,21.7,00.0,31.2,23.9,12.8,0000.0,0004.84,0002.31,0001.60
2022-02-12 05:48:00,,0835.5,5.01,0.00,22.2,21.6,00.0,31.2,23.9,12.9,0000.0,0004.93,0002.34,0001.61
2022-02-12 05:49:00,,0835.5,5.00,0.00,22.1,21.5,00.0,31.2,23.8,12.9,0000.0,0004.88,0002.31,0001.59
2022-02-12 05:50:00,,0835.5,4.99,0.00,22.1,21.4,00.0,31.2,23.8,12.9,0000.0,0004.81,0002.30,0001.60
2022-02-12 05:51:00,,0835.5,5.00,0.00,22.1,21.4,00.0,31.2,23.8,13.0,0000.0,0004.35,0002.28,0001.61
2022-02-12 05:52:00,,0835.5,4.99,0.00,22.1,21.4,00.0,31.1,23.7,13.0,0000.0,0004.27,0002.32,0001.65
2022-02-12 05:53:00,,0835.5,4.99,0.00,22.0,21.4,00.0,31.1,23.7,13.0,0000.0,0004.32,0002.34,0001.69
2022-02-12 05:54:00,,0835.5,5.01,0.00,22.0,21.3,00.0,31.1,23.8,13.0,0000.0,0004.10,0002.31,0001.72
2022-02-12 05:55:00,,0835.6,5.01,0.00,22.0,21.3,00.0,31.1,23.8,13.1,0000.0,0003.62,0002.28,0001.77
2022-02-12 05:56:00,,0835.6,4.99,0.00,22.0,21.3,00.0,31.1,23.7,13.1,0000.0,0003.34,0002.27,0001.82
2022-02-12 05:57:00,,0835.6,5.00,0.00,22.0,21.3,00.0,31.1,23.7,13.1,0000.0,0003.19,0002.26,0001.85
2022-02-12 05:58:00,,0835.6,5.02,0.00,22.0,21.3,00.0,31.1,23.7,13.1,0000.0,0003.16,0002.23,0001.86
2022-02-12 05:59:00,,0835.6,5.00,0.00,22.0,21.3,00.0,31.1,23.6,13.1,0000.0,0003.09,0002.21,0001.86
